Voltar ao catálogo

BEIDOU 14

AtivoNavegaçãoMEO
NORAD 38774·PAYLOAD·🇨🇳 China

Lançado Sep 18, 2012 de Xichang Satellite Launch Center

Loading…

Próximas Passagens (próximas 24 horas)

TLE

AtualizadoSource: Space-Track

Época: Sep 14, 2026, 01:57 UTC

1 38774U 12050A   26257.08133884 -.00000048  00000-0  00000-0 0  9997
2 38774  56.5213  59.9415 0042112 263.4110  96.1213  1.86251621 79508

Acompanhe BEIDOU 14 em tempo real com AllMySat

Download on the App Store